This is the latest recevied weather packets stored in our database for station/object KE2HEH. If no packets are shown the sender has not sent any weather packets the latest 1 day(s).
| Time | Temp. | Humidity | Pressure | Rain* | Wind** | Luminosity | Snow |
|---|---|---|---|---|---|---|---|
| 1778003038 | 14.44° C | 87% | 1011.4 hPa | 0 mm | 6.26 m/s, 170° | 595 W/m² | - |
| 1778002734 | 14.44° C | 87% | 1011.4 hPa | 0 mm | 5.36 m/s, 193° | 579 W/m² | - |
| 1778002431 | 14.44° C | 87% | 1011.4 hPa | 0 mm | 4.02 m/s, 190° | 568 W/m² | - |
| 1778002128 | 14.44° C | 87% | 1011.3 hPa | 0 mm | 5.81 m/s, 179° | 557 W/m² | - |
| 1778001825 | 13.89° C | 87% | 1011.4 hPa | 0 mm | 5.81 m/s, 194° | 515 W/m² | - |
| 1778001525 | 13.89° C | 87% | 1011.6 hPa | 0 mm | 6.71 m/s, 191° | 551 W/m² | - |
| 1778001222 | 14.44° C | 87% | 1011.5 hPa | 0 mm | 5.36 m/s, 198° | 570 W/m² | - |
| 1778000918 | 14.44° C | 87% | 1011.6 hPa | 0 mm | 4.92 m/s, 181° | 556 W/m² | - |
| 1778000615 | 14.44° C | 87% | 1011.5 hPa | 0 mm | 5.36 m/s, 208° | 530 W/m² | - |
| 1778000311 | 13.89° C | 87% | 1011.6 hPa | 0 mm | 4.02 m/s, 178° | 470 W/m² | - |
| 1778000006 | 14.44° C | 87% | 1011.5 hPa | 0 mm | 5.36 m/s, 174° | 521 W/m² | - |
| 1777999702 | 13.89° C | 88% | 1011.8 hPa | 0 mm | 3.58 m/s, 188° | 549 W/m² | - |
| 1777999399 | 13.89° C | 87% | 1011.9 hPa | 0 mm | 4.47 m/s, 186° | 545 W/m² | - |
| 1777999098 | 13.89° C | 88% | 1012 hPa | 0 mm | 3.58 m/s, 180° | 531 W/m² | - |
| 1777998796 | 13.89° C | 88% | 1011.8 hPa | 0 mm | 3.58 m/s, 186° | 548 W/m² | - |
| 1777998494 | 13.89° C | 88% | 1011.9 hPa | 0 mm | 4.47 m/s, 212° | 567 W/m² | - |
| 1777998190 | 13.89° C | 88% | 1011.9 hPa | 0 mm | 3.58 m/s, 189° | 538 W/m² | - |
| 1777997887 | 13.89° C | 88% | 1012 hPa | 0 mm | 4.02 m/s, 195° | 548 W/m² | - |
| 1777997584 | 14.44° C | 88% | 1012.3 hPa | 0 mm | 3.58 m/s, 213° | 532 W/m² | - |
| 1777997282 | 13.89° C | 88% | 1012.1 hPa | 0 mm | 3.13 m/s, 205° | 583 W/m² | - |
| 1777996979 | 13.89° C | 89% | 1012.4 hPa | 0 mm | 2.68 m/s, 215° | 575 W/m² | - |
| 1777996676 | 13.89° C | 89% | 1012.4 hPa | 0 mm | 4.02 m/s, 199° | 555 W/m² | - |
| 1777996371 | 13.89° C | 89% | 1012.3 hPa | 0 mm | 2.68 m/s, 203° | 584 W/m² | - |
| 1777996068 | 13.89° C | 89% | 1012.4 hPa | 0 mm | 3.13 m/s, 212° | 590 W/m² | - |
| 1777995765 | 13.89° C | 89% | 1012.4 hPa | 0 mm | 3.13 m/s, 202° | 608 W/m² | - |
* Rain latest hour (hover to see other rain measurements)
** Current wind speed in m/s (hover to see current wind gust speed)